QFA485 YSSY-YMML

Flight info

Callsign QFA485
Flight time 1h 13m
Altitude 34000
Route WOL H65 LEECE Q29 ML
Aircraft B738/M-SDE2E3FGHIRWXY/LB1

Departure

Time 2026-04-30 08:57
Airport Sydney Kingsford Smith International Airport (YSSY)

Arrival

Time 2026-04-30 10:10
Airport Melbourne Airport (YMML)
Time Latitude Longitude Altitude Speed Heading
2026-04-30 08:14 -33.93141 151.17802 29 ft 0 kts 191°
2026-04-30 08:38 -33.93135 151.17803 29 ft 2 kts 192°
2026-04-30 08:38 -33.93116 151.17809 29 ft 3 kts 198°
2026-04-30 08:39 -33.93097 151.17817 29 ft 3 kts 207°
2026-04-30 08:39 -33.93080 151.17830 29 ft 3 kts 225°
2026-04-30 08:39 -33.93070 151.17847 29 ft 3 kts 264°
2026-04-30 08:39 -33.93070 151.17855 29 ft 0 kts 280°
2026-04-30 08:43 -33.93069 151.17853 29 ft 1 kts 280°
2026-04-30 08:43 -33.93066 151.17830 29 ft 5 kts 280°
2026-04-30 08:44 -33.93053 151.17758 29 ft 12 kts 284°
2026-04-30 08:44 -33.93025 151.17679 29 ft 3 kts 291°
2026-04-30 08:44 -33.93014 151.17633 29 ft 11 kts 284°
2026-04-30 08:44 -33.93009 151.17585 29 ft 3 kts 262°
2026-04-30 08:45 -33.93018 151.17565 29 ft 3 kts 231°
2026-04-30 08:45 -33.93073 151.17525 29 ft 15 kts 201°
2026-04-30 08:45 -33.93205 151.17547 29 ft 24 kts 167°
2026-04-30 08:45 -33.93378 151.17591 29 ft 24 kts 170°
2026-04-30 08:46 -33.93534 151.17597 29 ft 23 kts 168°
2026-04-30 08:46 -33.93677 151.17657 29 ft 20 kts 150°
2026-04-30 08:46 -33.93718 151.17680 29 ft 8 kts 161°
2026-04-30 08:46 -33.93818 151.17708 29 ft 17 kts 158°
2026-04-30 08:47 -33.93881 151.17769 29 ft 18 kts 154°
2026-04-30 08:47 -33.94070 151.17824 28 ft 25 kts 168°
2026-04-30 08:47 -33.94240 151.17867 29 ft 23 kts 167°
2026-04-30 08:47 -33.94344 151.17895 29 ft 22 kts 168°
2026-04-30 08:48 -33.94483 151.17889 29 ft 15 kts 200°
2026-04-30 08:48 -33.94571 151.17894 29 ft 13 kts 167°
2026-04-30 08:48 -33.94683 151.17924 29 ft 18 kts 167°
2026-04-30 08:48 -33.94823 151.17961 29 ft 21 kts 168°
2026-04-30 08:49 -33.94956 151.17994 29 ft 18 kts 167°
2026-04-30 08:49 -33.95077 151.18034 29 ft 18 kts 149°
2026-04-30 08:49 -33.95091 151.18156 29 ft 9 kts 75°
2026-04-30 08:49 -33.95076 151.18233 29 ft 11 kts 77°
2026-04-30 08:50 -33.95063 151.18302 29 ft 3 kts 77°
2026-04-30 08:50 -33.95051 151.18371 29 ft 11 kts 79°
2026-04-30 08:50 -33.95049 151.18387 29 ft 0 kts 80°
2026-04-30 08:51 -33.95048 151.18392 29 ft 2 kts 80°
2026-04-30 08:51 -33.95040 151.18457 29 ft 9 kts 83°
2026-04-30 08:51 -33.95094 151.18533 29 ft 18 kts 151°
2026-04-30 08:51 -33.95218 151.18656 29 ft 27 kts 140°
2026-04-30 08:52 -33.95400 151.18742 29 ft 28 kts 167°
2026-04-30 08:52 -33.95588 151.18790 29 ft 27 kts 167°
2026-04-30 08:52 -33.95766 151.18837 29 ft 25 kts 168°
2026-04-30 08:52 -33.95930 151.18878 29 ft 24 kts 168°
2026-04-30 08:53 -33.96087 151.18919 29 ft 23 kts 167°
2026-04-30 08:53 -33.96240 151.18957 29 ft 22 kts 169°
2026-04-30 08:53 -33.96386 151.18999 29 ft 21 kts 168°
2026-04-30 08:53 -33.96530 151.19034 29 ft 20 kts 168°
2026-04-30 08:54 -33.96660 151.19068 29 ft 19 kts 169°
2026-04-30 08:54 -33.96788 151.19065 29 ft 18 kts 184°
2026-04-30 08:54 -33.96907 151.19087 29 ft 17 kts 167°
2026-04-30 08:54 -33.97022 151.19117 29 ft 17 kts 168°
2026-04-30 08:55 -33.97090 151.19138 29 ft 2 kts 161°
2026-04-30 08:55 -33.97112 151.19156 29 ft 6 kts 132°
2026-04-30 08:55 -33.97119 151.19217 29 ft 8 kts 76°
2026-04-30 08:55 -33.97109 151.19291 27 ft 10 kts 77°
2026-04-30 08:56 -33.97076 151.19368 28 ft 11 kts 24°
2026-04-30 08:56 -33.96999 151.19355 25 ft 17 kts 347°
2026-04-30 08:56 -33.96652 151.19265 22 ft 92 kts 348°
2026-04-30 08:56 -33.95777 151.19037 30 ft 162 kts 348°
2026-04-30 08:57 -33.94520 151.18701 420 ft 194 kts 349°
2026-04-30 08:57 -33.93202 151.18334 1438 ft 194 kts 351°
2026-04-30 08:57 -33.91883 151.18422 2173 ft 197 kts 27°
2026-04-30 08:57 -33.90940 151.19647 2468 ft 211 kts 72°
2026-04-30 08:58 -33.90962 151.21412 2998 ft 219 kts 100°
2026-04-30 08:58 -33.91351 151.23209 3551 ft 226 kts 111°
2026-04-30 08:58 -33.92086 151.24906 4226 ft 228 kts 115°
2026-04-30 08:58 -33.92860 151.26683 4555 ft 253 kts 115°
2026-04-30 08:59 -33.93675 151.28616 5185 ft 260 kts 109°
2026-04-30 08:59 -33.93889 151.30771 5874 ft 262 kts 84°
2026-04-30 08:59 -33.93742 151.32926 6676 ft 263 kts 85°
2026-04-30 08:59 -33.93616 151.35158 7350 ft 269 kts 85°
2026-04-30 09:00 -33.93513 151.37418 8108 ft 267 kts 86°
2026-04-30 09:00 -33.93430 151.39659 8922 ft 269 kts 86°
2026-04-30 09:00 -33.93354 151.41952 9552 ft 275 kts 86°
2026-04-30 09:00 -33.93283 151.44272 10247 ft 280 kts 86°
2026-04-30 09:01 -33.93214 151.46602 10868 ft 284 kts 86°
2026-04-30 09:01 -33.93178 151.49000 11466 ft 290 kts 94°
2026-04-30 09:01 -33.93841 151.51309 12046 ft 298 kts 124°
2026-04-30 09:01 -33.95350 151.53037 12632 ft 306 kts 149°
2026-04-30 09:02 -33.99666 151.53492 13154 ft 342 kts 201°
2026-04-30 09:02 -34.01761 151.52017 13391 ft 357 kts 220°
2026-04-30 09:02 -34.03559 151.49897 13942 ft 363 kts 227°
2026-04-30 09:03 -34.05252 151.47618 14498 ft 367 kts 229°
2026-04-30 09:03 -34.06932 151.45277 15084 ft 369 kts 229°
2026-04-30 09:03 -34.08619 151.42925 15651 ft 372 kts 229°
2026-04-30 09:03 -34.10320 151.40578 16180 ft 377 kts 229°
2026-04-30 09:04 -34.12065 151.38195 16752 ft 379 kts 228°
2026-04-30 09:04 -34.13823 151.35813 17326 ft 382 kts 228°
2026-04-30 09:04 -34.15609 151.33406 17840 ft 386 kts 228°
2026-04-30 09:04 -34.17415 151.30978 18402 ft 389 kts 227°
2026-04-30 09:05 -34.19235 151.28534 18914 ft 392 kts 227°
2026-04-30 09:05 -34.21048 151.26099 19383 ft 395 kts 227°
2026-04-30 09:05 -34.22884 151.23633 19927 ft 396 kts 227°
2026-04-30 09:05 -34.24739 151.21138 20370 ft 399 kts 227°
2026-04-30 09:06 -34.26603 151.18631 20847 ft 402 kts 227°
2026-04-30 09:06 -34.28479 151.16105 21324 ft 404 kts 227°
2026-04-30 09:06 -34.30360 151.13569 21779 ft 407 kts 227°
2026-04-30 09:06 -34.32254 151.11014 22220 ft 409 kts 227°
2026-04-30 09:07 -34.34164 151.08436 22652 ft 412 kts 227°
2026-04-30 09:07 -34.36087 151.05838 23090 ft 415 kts 227°
2026-04-30 09:07 -34.38014 151.03232 23513 ft 417 kts 227°
2026-04-30 09:07 -34.39961 151.00598 23938 ft 420 kts 227°
2026-04-30 09:08 -34.41886 150.97992 24301 ft 422 kts 227°
2026-04-30 09:08 -34.43852 150.95329 24664 ft 423 kts 227°
2026-04-30 09:08 -34.45818 150.92663 25032 ft 425 kts 227°
2026-04-30 09:08 -34.47797 150.89978 25391 ft 427 kts 227°
2026-04-30 09:09 -34.49783 150.87280 25739 ft 428 kts 227°
2026-04-30 09:09 -34.51770 150.84580 26085 ft 430 kts 227°
2026-04-30 09:09 -34.53771 150.81859 26418 ft 432 kts 227°
2026-04-30 09:09 -34.55748 150.79168 26750 ft 434 kts 228°
2026-04-30 09:10 -34.57671 150.76321 27066 ft 436 kts 232°
2026-04-30 09:10 -34.59479 150.73354 27387 ft 438 kts 233°
2026-04-30 09:10 -34.61253 150.70327 27695 ft 440 kts 234°
2026-04-30 09:10 -34.63026 150.67283 27984 ft 442 kts 233°
2026-04-30 09:11 -34.64808 150.64242 28293 ft 443 kts 233°
2026-04-30 09:11 -34.66613 150.61192 28599 ft 445 kts 234°
2026-04-30 09:11 -34.68411 150.58173 28882 ft 447 kts 232°
2026-04-30 09:11 -34.70240 150.55118 29161 ft 448 kts 232°
2026-04-30 09:12 -34.72080 150.52053 29460 ft 449 kts 232°
2026-04-30 09:12 -34.73924 150.48981 29844 ft 449 kts 232°
2026-04-30 09:12 -34.75764 150.45913 30272 ft 447 kts 233°
2026-04-30 09:12 -34.77592 150.42861 30653 ft 445 kts 233°
2026-04-30 09:13 -34.79418 150.39809 30965 ft 445 kts 233°
2026-04-30 09:13 -34.81238 150.36762 31276 ft 444 kts 233°
2026-04-30 09:13 -34.83029 150.33762 31585 ft 443 kts 233°
2026-04-30 09:13 -34.84841 150.30723 31898 ft 442 kts 233°
2026-04-30 09:14 -34.86647 150.27693 32207 ft 441 kts 233°
2026-04-30 09:14 -34.88446 150.24672 32499 ft 440 kts 233°
2026-04-30 09:14 -34.90244 150.21650 32801 ft 439 kts 233°
2026-04-30 09:14 -34.92032 150.18641 33091 ft 439 kts 233°
2026-04-30 09:15 -34.93801 150.15663 33374 ft 438 kts 233°
2026-04-30 09:15 -34.95585 150.12656 33670 ft 437 kts 233°
2026-04-30 09:15 -34.97361 150.09663 33933 ft 436 kts 233°
2026-04-30 09:15 -34.99148 150.06646 34168 ft 436 kts 233°
2026-04-30 09:16 -35.00926 150.03641 34414 ft 436 kts 233°
2026-04-30 09:16 -35.02706 150.00632 34423 ft 439 kts 233°
2026-04-30 09:16 -35.06249 149.94635 34427 ft 436 kts 233°
2026-04-30 09:17 -35.09788 149.88634 34434 ft 433 kts 233°
2026-04-30 09:17 -35.13294 149.82679 34435 ft 430 kts 234°
2026-04-30 09:18 -35.16761 149.76780 34430 ft 429 kts 234°
2026-04-30 09:18 -35.20234 149.70860 34432 ft 428 kts 234°
2026-04-30 09:19 -35.23713 149.64921 34439 ft 429 kts 234°
2026-04-30 09:19 -35.27195 149.58966 34440 ft 431 kts 234°
2026-04-30 09:20 -35.30664 149.53022 34437 ft 432 kts 234°
2026-04-30 09:20 -35.34174 149.47000 34433 ft 434 kts 234°
2026-04-30 09:21 -35.37690 149.40956 34433 ft 436 kts 234°
2026-04-30 09:21 -35.41191 149.34926 34430 ft 437 kts 234°
2026-04-30 09:22 -35.44718 149.28841 34429 ft 437 kts 235°
2026-04-30 09:22 -35.48242 149.22753 34429 ft 437 kts 235°
2026-04-30 09:23 -35.51737 149.16702 34432 ft 437 kts 235°
2026-04-30 09:23 -35.55252 149.10608 34435 ft 436 kts 235°
2026-04-30 09:24 -35.58752 149.04526 34444 ft 435 kts 235°
2026-04-30 09:24 -35.62222 148.98489 34447 ft 434 kts 235°
2026-04-30 09:25 -35.65703 148.92421 34450 ft 433 kts 235°
2026-04-30 09:25 -35.69162 148.86381 34457 ft 432 kts 236°
2026-04-30 09:26 -35.72621 148.80329 34463 ft 431 kts 236°
2026-04-30 09:26 -35.76042 148.74334 34464 ft 430 kts 236°
2026-04-30 09:27 -35.79484 148.68293 34463 ft 430 kts 236°
2026-04-30 09:27 -35.82910 148.62267 34467 ft 429 kts 236°
2026-04-30 09:28 -35.86322 148.56256 34468 ft 429 kts 236°
2026-04-30 09:28 -35.89747 148.50208 34464 ft 430 kts 236°
2026-04-30 09:29 -35.93163 148.44146 34454 ft 430 kts 236°
2026-04-30 09:29 -35.96577 148.38075 34458 ft 431 kts 237°
2026-04-30 09:30 -35.99976 148.32020 34454 ft 432 kts 237°
2026-04-30 09:30 -36.03400 148.25911 34446 ft 432 kts 237°
2026-04-30 09:31 -36.06830 148.19781 34443 ft 433 kts 237°
2026-04-30 09:31 -36.10246 148.13666 34421 ft 435 kts 237°
2026-04-30 09:32 -36.13686 148.07507 34428 ft 435 kts 237°
2026-04-30 09:32 -36.17138 148.01335 34417 ft 436 kts 237°
2026-04-30 09:33 -36.20593 147.95147 34414 ft 436 kts 237°
2026-04-30 09:33 -36.24043 147.88953 34407 ft 436 kts 237°
2026-04-30 09:34 -36.27467 147.82795 34416 ft 436 kts 237°
2026-04-30 09:34 -36.30911 147.76588 34407 ft 436 kts 237°
2026-04-30 09:35 -36.33766 147.71436 34412 ft 436 kts 237°
2026-04-30 09:35 -36.37751 147.64216 34408 ft 436 kts 238°
2026-04-30 09:36 -36.40619 147.59008 34411 ft 436 kts 238°
2026-04-30 09:36 -36.44018 147.52824 34408 ft 435 kts 238°
2026-04-30 09:37 -36.47432 147.46604 34403 ft 435 kts 238°
2026-04-30 09:37 -36.50841 147.40383 34405 ft 435 kts 238°
2026-04-30 09:38 -36.54224 147.34193 34413 ft 434 kts 239°
2026-04-30 09:38 -36.57617 147.27979 34395 ft 433 kts 239°
2026-04-30 09:39 -36.60997 147.21777 34403 ft 432 kts 239°
2026-04-30 09:39 -36.64290 147.15727 34370 ft 408 kts 239°
2026-04-30 09:40 -36.65870 147.12818 34059 ft 402 kts 239°
2026-04-30 09:40 -36.67406 147.09985 33746 ft 397 kts 240°
2026-04-30 09:40 -36.68945 147.07145 33392 ft 393 kts 240°
2026-04-30 09:40 -36.70473 147.04325 33020 ft 391 kts 240°
2026-04-30 09:41 -36.71991 147.01521 32535 ft 390 kts 240°
2026-04-30 09:41 -36.73510 146.98713 32185 ft 388 kts 240°
2026-04-30 09:41 -36.75013 146.95933 31807 ft 386 kts 240°
2026-04-30 09:41 -36.76489 146.93200 31450 ft 384 kts 240°
2026-04-30 09:42 -36.77979 146.90440 31098 ft 381 kts 240°
2026-04-30 09:42 -36.79457 146.87699 30740 ft 380 kts 240°
2026-04-30 09:42 -36.80926 146.84971 30399 ft 378 kts 240°
2026-04-30 09:42 -36.82386 146.82258 29988 ft 375 kts 240°
2026-04-30 09:43 -36.83844 146.79547 29605 ft 373 kts 240°
2026-04-30 09:43 -36.85266 146.76902 29228 ft 370 kts 240°
2026-04-30 09:43 -36.86695 146.74240 28871 ft 367 kts 240°
2026-04-30 09:43 -36.88116 146.71591 28492 ft 365 kts 240°
2026-04-30 09:44 -36.89524 146.68966 28143 ft 362 kts 240°
2026-04-30 09:44 -36.90918 146.66363 27799 ft 360 kts 241°
2026-04-30 09:44 -36.92308 146.63766 27436 ft 357 kts 241°
2026-04-30 09:44 -36.93687 146.61186 27102 ft 355 kts 241°
2026-04-30 09:45 -36.95056 146.58624 26760 ft 353 kts 241°
2026-04-30 09:45 -36.96417 146.56075 26424 ft 351 kts 241°
2026-04-30 09:45 -36.97757 146.53564 26089 ft 350 kts 241°
2026-04-30 09:45 -36.99107 146.51030 25739 ft 348 kts 241°
2026-04-30 09:46 -37.00449 146.48512 25393 ft 347 kts 241°
2026-04-30 09:46 -37.01783 146.46005 25064 ft 346 kts 241°
2026-04-30 09:46 -37.03114 146.43502 24721 ft 345 kts 241°
2026-04-30 09:46 -37.04443 146.41003 24392 ft 344 kts 241°
2026-04-30 09:47 -37.05768 146.38508 24049 ft 344 kts 242°
2026-04-30 09:47 -37.07046 146.36100 23673 ft 344 kts 242°
2026-04-30 09:47 -37.08366 146.33614 23279 ft 343 kts 242°
2026-04-30 09:47 -37.09689 146.31118 22878 ft 342 kts 241°
2026-04-30 09:48 -37.11000 146.28645 22530 ft 340 kts 241°
2026-04-30 09:48 -37.12288 146.26213 22193 ft 338 kts 241°
2026-04-30 09:48 -37.13583 146.23766 21862 ft 336 kts 241°
2026-04-30 09:48 -37.14873 146.21325 21529 ft 334 kts 241°
2026-04-30 09:49 -37.16152 146.18903 21195 ft 332 kts 242°
2026-04-30 09:49 -37.17425 146.16491 20867 ft 330 kts 242°
2026-04-30 09:49 -37.18691 146.14090 20555 ft 329 kts 242°
2026-04-30 09:49 -37.19953 146.11696 20224 ft 328 kts 242°
2026-04-30 09:50 -37.21204 146.09317 19902 ft 327 kts 242°
2026-04-30 09:50 -37.22453 146.06944 19578 ft 325 kts 242°
2026-04-30 09:50 -37.23683 146.04604 19273 ft 324 kts 242°
2026-04-30 09:50 -37.24923 146.02244 18936 ft 324 kts 241°
2026-04-30 09:51 -37.26164 145.99879 18613 ft 323 kts 241°
2026-04-30 09:51 -37.27403 145.97519 18235 ft 322 kts 241°
2026-04-30 09:51 -37.28631 145.95177 17896 ft 320 kts 241°
2026-04-30 09:51 -37.29852 145.92848 17569 ft 318 kts 241°
2026-04-30 09:52 -37.31050 145.90563 17261 ft 316 kts 241°
2026-04-30 09:52 -37.32268 145.88242 16926 ft 314 kts 241°
2026-04-30 09:52 -37.33475 145.85945 16598 ft 313 kts 241°
2026-04-30 09:52 -37.34659 145.83692 16288 ft 312 kts 241°
2026-04-30 09:53 -37.35851 145.81421 15967 ft 310 kts 241°
2026-04-30 09:53 -37.37040 145.79153 15675 ft 309 kts 240°
2026-04-30 09:53 -37.38219 145.76901 15353 ft 308 kts 240°
2026-04-30 09:53 -37.39401 145.74642 15039 ft 307 kts 240°
2026-04-30 09:54 -37.40576 145.72394 14744 ft 306 kts 240°
2026-04-30 09:54 -37.41728 145.70190 14439 ft 305 kts 240°
2026-04-30 09:54 -37.42895 145.67955 14125 ft 305 kts 240°
2026-04-30 09:54 -37.44061 145.65723 13766 ft 304 kts 240°
2026-04-30 09:55 -37.45226 145.63493 13410 ft 302 kts 240°
2026-04-30 09:55 -37.46434 145.61340 13131 ft 300 kts 237°
2026-04-30 09:55 -37.47671 145.59241 12866 ft 297 kts 237°
2026-04-30 09:55 -37.48889 145.57183 12560 ft 296 kts 237°
2026-04-30 09:56 -37.50113 145.55105 12259 ft 294 kts 237°
2026-04-30 09:56 -37.51327 145.53031 11968 ft 292 kts 237°
2026-04-30 09:56 -37.52526 145.50971 11671 ft 291 kts 238°
2026-04-30 09:56 -37.53721 145.48913 11373 ft 289 kts 238°
2026-04-30 09:57 -37.54910 145.46865 11083 ft 288 kts 238°
2026-04-30 09:57 -37.56078 145.44850 10806 ft 287 kts 237°
2026-04-30 09:57 -37.57256 145.42816 10512 ft 286 kts 238°
2026-04-30 09:57 -37.58419 145.40808 10230 ft 284 kts 237°
2026-04-30 09:58 -37.59585 145.38797 10045 ft 277 kts 238°
2026-04-30 09:58 -37.60690 145.36891 9896 ft 263 kts 238°
2026-04-30 09:58 -37.61730 145.35095 9741 ft 251 kts 238°
2026-04-30 09:58 -37.62753 145.33319 9403 ft 247 kts 238°
2026-04-30 09:59 -37.64771 145.29817 8396 ft 247 kts 238°
2026-04-30 09:59 -37.66777 145.26336 7542 ft 245 kts 239°
2026-04-30 10:00 -37.68766 145.22885 6884 ft 233 kts 239°
2026-04-30 10:00 -37.69695 145.21278 6795 ft 219 kts 239°
2026-04-30 10:01 -37.71400 145.18313 6357 ft 204 kts 239°
2026-04-30 10:01 -37.72232 145.16861 5971 ft 204 kts 240°
2026-04-30 10:01 -37.73056 145.15423 5586 ft 206 kts 240°
2026-04-30 10:02 -37.74743 145.12483 4878 ft 208 kts 240°
2026-04-30 10:02 -37.75592 145.11003 4555 ft 207 kts 241°
2026-04-30 10:02 -37.76439 145.09527 4225 ft 208 kts 240°
2026-04-30 10:02 -37.77289 145.08044 3866 ft 209 kts 240°
2026-04-30 10:03 -37.78141 145.06557 3559 ft 207 kts 240°
2026-04-30 10:03 -37.78976 145.05098 3235 ft 208 kts 240°
2026-04-30 10:03 -37.79825 145.03616 3028 ft 209 kts 239°
2026-04-30 10:03 -37.80683 145.02115 3019 ft 211 kts 240°
2026-04-30 10:04 -37.81448 145.00583 2977 ft 199 kts 258°
2026-04-30 10:04 -37.81726 144.98927 3008 ft 191 kts 266°
2026-04-30 10:04 -37.82001 144.97298 2995 ft 184 kts 265°
2026-04-30 10:04 -37.82273 144.95747 2972 ft 177 kts 265°
2026-04-30 10:05 -37.82532 144.94211 2990 ft 179 kts 268°
2026-04-30 10:05 -37.82730 144.92677 2979 ft 174 kts 269°
2026-04-30 10:05 -37.82914 144.91193 2778 ft 167 kts 269°
2026-04-30 10:05 -37.83089 144.89765 2497 ft 164 kts 270°
2026-04-30 10:06 -37.83223 144.88333 2492 ft 166 kts 281°
2026-04-30 10:06 -37.82727 144.87182 2496 ft 147 kts 335°
2026-04-30 10:06 -37.81763 144.86807 2501 ft 144 kts 346°
2026-04-30 10:06 -37.80826 144.86502 2480 ft 136 kts 347°
2026-04-30 10:07 -37.79887 144.86216 2499 ft 139 kts 352°
2026-04-30 10:07 -37.78917 144.86026 2396 ft 142 kts 353°
2026-04-30 10:07 -37.77959 144.85849 2214 ft 136 kts 353°
2026-04-30 10:07 -37.77051 144.85680 2029 ft 132 kts 353°
2026-04-30 10:08 -37.76147 144.85512 1874 ft 132 kts 352°
2026-04-30 10:08 -37.75247 144.85344 1697 ft 128 kts 353°
2026-04-30 10:08 -37.74356 144.85179 1535 ft 131 kts 353°
2026-04-30 10:08 -37.73440 144.85008 1354 ft 140 kts 353°
2026-04-30 10:09 -37.72442 144.84828 1155 ft 147 kts 350°
2026-04-30 10:09 -37.71494 144.84611 949 ft 133 kts 355°
2026-04-30 10:09 -37.70587 144.84459 785 ft 130 kts 354°
2026-04-30 10:09 -37.69684 144.84288 633 ft 134 kts 353°
2026-04-30 10:10 -37.68752 144.84122 432 ft 135 kts 353°
2026-04-30 10:10 -37.67864 144.83963 361 ft 118 kts 352°
2026-04-30 10:10 -37.67252 144.83851 377 ft 62 kts 352°
2026-04-30 10:10 -37.66976 144.83851 385 ft 36 kts 14°
2026-04-30 10:11 -37.66850 144.83907 390 ft 13 kts 21°
2026-04-30 10:11 -37.66801 144.83932 391 ft 2 kts 22°
2026-04-30 10:11 -37.66786 144.83940 392 ft 5 kts 24°
2026-04-30 10:11 -37.66748 144.83973 393 ft 8 kts 46°
2026-04-30 10:12 -37.66717 144.84062 390 ft 14 kts 82°
2026-04-30 10:12 -37.66705 144.84184 393 ft 14 kts 83°
2026-04-30 10:12 -37.66690 144.84301 392 ft 13 kts 81°
2026-04-30 10:12 -37.66676 144.84414 394 ft 13 kts 81°
2026-04-30 10:13 -37.66663 144.84524 396 ft 12 kts 81°
2026-04-30 10:13 -37.66652 144.84631 399 ft 12 kts 82°
2026-04-30 10:13 -37.66638 144.84735 401 ft 12 kts 75°
2026-04-30 10:13 -37.66582 144.84804 401 ft 11 kts 28°
2026-04-30 10:14 -37.66543 144.84882 405 ft 11 kts 86°
2026-04-30 10:14 -37.66533 144.84981 405 ft 11 kts 82°
2026-04-30 10:14 -37.66653 144.85073 400 ft 13 kts 172°
2026-04-30 10:15 -37.66742 144.85089 394 ft 12 kts 176°
2026-04-30 10:15 -37.66804 144.85089 394 ft 4 kts 175°
2026-04-30 10:15 -37.66822 144.85115 394 ft 4 kts 102°
2026-04-30 10:15 -37.66821 144.85151 396 ft 3 kts 82°
2026-04-30 10:16 -37.66819 144.85165 395 ft 0 kts 82°